Tracking 25710 objects as of 5-Jul-2022
HD Live streaming from Space Station
objects crossing your sky now

FENGYUN 1C DEB

Track FENGYUN 1C DEB now!
10-day predictions


NORAD ID: 33664
Int'l Code: 1999-025DEZ
Perigee: 777.5 km
Apogee: 1,014.6 km
Inclination: 98.6 °
Period: 102.8 minutes
Semi major axis: 7267 km
RCS: 0.0059 m2 (small)
Launch date: May 10, 1999
Source: People's Republic of China (PRC)
Launch site: Taiyaun Space Center, China (TSC)

Note: This is SATELLITE DEBRIS
aabbcc
Your satellite tracking list
Your tracking list is empty




NASA's NSSDC Master Catalog

Two Line Element Set (TLE):
1 33664U 99025DEZ 22185.77955646  .00000036  00000-0  46033-4 0  9993
2 33664  98.6165  21.7130 0163074 326.4994  32.5940 14.01410561731198
Source of the keplerian elements: AFSPC